Terminal Aerodrome Forecast
Issued by NWS

Home | Current Version | Previous Version | Text Only | Print | Product List | Glossary On
Versions: 1 2 3 4 5 6 7 8 9 10 11 12 13 14 15 16 17 18 19
000
FTUS43 KDLH 190500 RRA
TAFHIB
TAF
KHIB 190555Z 1906/2006 11005KT P6SM BKN100
     FM190800 11009KT P6SM VCSH OVC060
      TEMPO 1908/1911 5SM -RA BR BKN025 OVC040
     FM191100 13008KT 4SM -RA OVC012
     FM191400 15009KT 3SM -RA BR OVC008
     FM192000 31009KT 5SM -SHRA BR BKN012
     FM192200 32012G18KT P6SM VCSH BKN015
     FM200200 32012KT P6SM BKN060=

USA.gov is the U.S. government's official web portal to all federal, state and local government web resources and services.